| time (UTC) | temp C | wind direction | speed KPH | gust KPH | rain 1hr cm | rain 24hr cm | rain mn cm | humidity % | barometer mb |
| 20260903220045 | 31 | 200 | 4.8 | 12.9 | 0.00 | 0.00 | 0.00 | 54 | 1012.1 |
| 20260903214544 | 32 | 246 | 6.4 | 11.3 | 0.00 | 0.00 | 0.00 | 54 | 1012.3 |
| 20260903213045 | 32 | 297 | 6.4 | 16.1 | 0.00 | 0.00 | 0.00 | 53 | 1012.4 |
| 20260903211600 | 32 | 217 | 6.4 | 16.1 | 0.00 | 0.00 | 0.00 | 53 | 1012.3 |
| 20260903210041 | 32 | 228 | 6.4 | 11.3 | 0.00 | 0.00 | 0.00 | 52 | 1012.4 |
| 20260903204540 | 32 | 236 | 6.4 | 12.9 | 0.00 | 0.00 | 0.00 | 50 | 1012.5 |
| 20260903203040 | 32 | 242 | 3.2 | 16.1 | 0.00 | 0.00 | 0.00 | 52 | 1012.5 |
| 20260903201537 | 32 | 209 | 8.0 | 12.9 | 0.00 | 0.00 | 0.00 | 52 | 1012.7 |
| 20260903200034 | 32 | 249 | 6.4 | 12.9 | 0.00 | 0.00 | 0.00 | 49 | 1013.0 |
| 20260903194530 | 32 | 269 | 4.8 | 11.3 | 0.00 | 0.03 | 0.00 | 50 | 1013.2 |
| 20260903193027 | 32 | 222 | 6.4 | 17.7 | 0.00 | 0.03 | 0.00 | 49 | 1013.5 |
| 20260903191529 | 32 | 284 | 8.0 | 12.9 | 0.00 | 0.03 | 0.00 | 49 | 1013.7 |
| 20260903190025 | 32 | 216 | 4.8 | 12.9 | 0.00 | 0.03 | 0.00 | 49 | 1013.8 |
| 20260903184523 | 32 | 245 | 4.8 | 11.3 | 0.00 | 0.03 | 0.00 | 48 | 1014.0 |
| 20260903183021 | 31 | 281 | 4.8 | 14.5 | 0.00 | 0.03 | 0.00 | 47 | 1014.2 |
| 20260903181523 | 31 | 245 | 8.0 | 12.9 | 0.00 | 0.03 | 0.00 | 46 | 1014.4 |
| 20260903180018 | 31 | 129 | 3.2 | 8.0 | 0.00 | 0.03 | 0.00 | 37 | 1014.2 |
| 20260903174512 | 31 | 229 | 1.6 | 9.7 | 0.00 | 0.03 | 0.00 | 28 | 1014.5 |
| 20260903173008 | 30 | 273 | 3.2 | 8.0 | 0.00 | 0.03 | 0.00 | 28 | 1015.1 |
| 20260903171509 | 30 | 247 | 4.8 | 9.7 | 0.00 | 0.03 | 0.00 | 24 | 1015.2 |
| 20260903170004 | 30 | 329 | 0.0 | 6.4 | 0.00 | 0.03 | 0.00 | 27 | 1015.9 |
| 20260903164501 | 30 | 37 | 4.8 | 9.7 | 0.00 | 0.03 | 0.00 | 25 | 1016.0 |
| 20260903163056 | 28 | 279 | 1.6 | 11.3 | 0.00 | 0.03 | 0.00 | 28 | 1016.2 |
| 20260903161551 | 27 | 52 | 0.0 | 8.0 | 0.00 | 0.03 | 0.00 | 33 | 1016.3 |
| 20260903160048 | 27 | 56 | 8.0 | 17.7 | 0.00 | 0.03 | 0.00 | 33 | 1016.6 |
| 20260903154543 | 27 | 351 | 1.6 | 6.4 | 0.00 | 0.03 | 0.00 | 33 | 1016.6 |
| 20260903153041 | 27 | 250 | 3.2 | 8.0 | 0.00 | 0.03 | 0.00 | 33 | 1016.2 |
| 20260903151537 | 26 | 252 | 1.6 | 6.4 | 0.00 | 0.03 | 0.00 | 33 | 1016.2 |
| 20260903150035 | 26 | 326 | 0.0 | 8.0 | 0.00 | 0.03 | 0.00 | 35 | 1016.3 |
| 20260903144530 | 26 | 227 | 4.8 | 9.7 | 0.00 | 0.03 | 0.00 | 35 | 1016.2 |
| 20260903143027 | 25 | 276 | 0.0 | 4.8 | 0.00 | 0.03 | 0.00 | 37 | 1016.2 |
| 20260903141524 | 25 | 225 | 1.6 | 4.8 | 0.00 | 0.03 | 0.00 | 36 | 1016.0 |
| 20260903140037 | 25 | 240 | 0.0 | 6.4 | 0.00 | 0.03 | 0.00 | 37 | 1015.8 |
| 20260903134521 | 24 | 99 | 3.2 | 6.4 | 0.00 | 0.03 | 0.00 | 39 | 1015.9 |
| 20260903133014 | 24 | 133 | 0.0 | 1.6 | 0.00 | 0.03 | 0.00 | 40 | 1016.0 |
| 20260903131511 | 23 | 122 | 0.0 | 9.7 | 0.00 | 0.03 | 0.00 | 42 | 1016.3 |
| 20260903130005 | 23 | 108 | 3.2 | 8.0 | 0.00 | 0.03 | 0.00 | 44 | 1016.6 |
| 20260903124502 | 22 | 34 | 6.4 | 16.1 | 0.00 | 0.03 | 0.00 | 45 | 1017.0 |
| 20260903123058 | 22 | 23 | 1.6 | 9.7 | 0.00 | 0.03 | 0.00 | 46 | 1016.9 |
| 20260903121555 | 22 | 62 | 6.4 | 14.5 | 0.00 | 0.03 | 0.00 | 47 | 1016.9 |
| 20260903120056 | 22 | 69 | 4.8 | 14.5 | 0.00 | 0.03 | 0.00 | 48 | 1016.9 |
| 20260903114653 | 22 | 27 | 9.7 | 17.7 | 0.00 | 0.03 | 0.00 | 48 | 1016.8 |
| 20260903113046 | 22 | 17 | 6.4 | 14.5 | 0.00 | 0.03 | 0.00 | 48 | 1016.6 |
| 20260903111540 | -17 | 0.0 | 0.0 | 0.00 | 0.03 | 0.00 | 1016.1 | ||
| 20260903110041 | -17 | 0.0 | 0.0 | 0.00 | 0.03 | 0.00 | 1015.9 | ||
| 20260903104530 | -17 | 0.0 | 0.0 | 0.00 | 0.03 | 0.00 | 1015.4 | ||
| 20260903103028 | -17 | 0.0 | 0.0 | 0.00 | 0.03 | 0.00 | 1014.9 | ||
| 20260903101522 | -17 | 20 | 0.0 | 0.0 | 0.00 | 0.03 | 0.00 | 1014.9 | |
| 20260903100019 | 21 | 20 | 0.0 | 0.0 | 0.00 | 0.03 | 0.00 | 49 | 1014.7 |
| 20260903094521 | 21 | 20 | 0.0 | 0.0 | 0.00 | 0.03 | 0.00 | 49 | 1014.9 |
| 20260903093018 | 21 | 20 | 0.0 | 0.0 | 0.00 | 0.03 | 0.00 | 48 | 1014.9 |
| 20260903091512 | 21 | 20 | 0.0 | 0.0 | 0.00 | 0.03 | 0.00 | 49 | 1014.9 |
| 20260903090013 | 21 | 20 | 0.0 | 0.0 | 0.00 | 0.03 | 0.00 | 48 | 1015.0 |
| 20260903084507 | 21 | 20 | 0.0 | 0.0 | 0.00 | 0.03 | 0.00 | 48 | 1014.9 |
| 20260903083007 | 21 | 20 | 0.0 | 0.0 | 0.00 | 0.03 | 0.00 | 48 | 1014.8 |
| 20260903081505 | 22 | 20 | 0.0 | 1.6 | 0.00 | 0.03 | 0.00 | 48 | 1014.8 |
| 20260903080003 | 21 | 20 | 1.6 | 4.8 | 0.00 | 0.03 | 0.00 | 48 | 1015.0 |
| 20260903074610 | 21 | 28 | 0.0 | 1.6 | 0.00 | 0.03 | 0.00 | 48 | 1015.0 |
| 20260903073135 | 21 | 29 | 0.0 | 0.0 | 0.00 | 0.03 | 0.00 | 47 | 1014.8 |
| 20260903071618 | 21 | 192 | 0.0 | 0.0 | 0.00 | 0.03 | 0.00 | 47 | 1014.6 |
| 20260903070055 | 21 | 235 | 1.6 | 4.8 | 0.00 | 0.03 | 0.00 | 47 | 1014.6 |
| 20260903064552 | 21 | 202 | 1.6 | 6.4 | 0.00 | 0.03 | 0.00 | 46 | 1014.5 |
| 20260903063056 | 21 | 208 | 1.6 | 4.8 | 0.00 | 0.03 | 0.00 | 46 | 1014.5 |
| 20260903061547 | 21 | 226 | 0.0 | 0.0 | 0.00 | 0.03 | 0.00 | 44 | 1014.6 |
| 20260903060111 | 21 | 232 | 0.0 | 0.0 | 0.00 | 0.03 | 0.00 | 41 | 1014.9 |
| 20260903054541 | 21 | 177 | 0.0 | 0.0 | 0.00 | 0.03 | 0.00 | 39 | 1015.1 |
| 20260903053036 | 22 | 235 | 0.0 | 0.0 | 0.00 | 0.03 | 0.00 | 40 | 1015.3 |
| 20260903051533 | 22 | 174 | 0.0 | 0.0 | 0.00 | 0.03 | 0.00 | 43 | 1015.4 |
| 20260903050032 | 22 | 141 | 0.0 | 0.0 | 0.00 | 0.03 | 0.00 | 45 | 1015.4 |
| 20260903044528 | 22 | 118 | 1.6 | 4.8 | 0.00 | 0.03 | 0.00 | 45 | 1015.5 |
| 20260903043026 | 22 | 130 | 3.2 | 8.0 | 0.00 | 0.03 | 0.00 | 45 | 1015.6 |
| 20260903041521 | 22 | 131 | 1.6 | 3.2 | 0.00 | 0.03 | 0.00 | 45 | 1015.5 |
| 20260903040018 | 22 | 147 | 3.2 | 6.4 | 0.00 | 0.03 | 0.00 | 45 | 1015.3 |
| 20260903034515 | 22 | 129 | 0.0 | 0.0 | 0.00 | 0.03 | 0.03 | 44 | 1015.4 |
| 20260903033014 | 22 | 166 | 0.0 | 0.0 | 0.00 | 0.03 | 0.03 | 45 | 1015.6 |
| 20260903031510 | 22 | 254 | 0.0 | 0.0 | 0.00 | 0.03 | 0.03 | 47 | 1015.5 |
| 20260903030010 | 22 | 254 | 0.0 | 0.0 | 0.00 | 0.03 | 0.03 | 47 | 1015.4 |
| 20260903024505 | 22 | 254 | 0.0 | 0.0 | 0.00 | 0.03 | 0.03 | 46 | 1015.3 |
| 20260903023004 | 22 | 252 | 0.0 | 0.0 | 0.00 | 0.03 | 0.03 | 46 | 1015.2 |
| 20260903021508 | 22 | 279 | 0.0 | 0.0 | 0.00 | 0.03 | 0.03 | 46 | 1015.2 |
| 20260903020103 | 22 | 278 | 0.0 | 0.0 | 0.00 | 0.03 | 0.03 | 46 | 1015.0 |
| 20260903014606 | 22 | 258 | 0.0 | 0.0 | 0.00 | 0.03 | 0.03 | 47 | 1015.3 |
| 20260903013055 | 22 | 269 | 0.0 | 0.0 | 0.00 | 0.03 | 0.03 | 47 | 1015.6 |
| 20260903011553 | 22 | 272 | 0.0 | 0.0 | 0.00 | 0.03 | 0.03 | 47 | 1015.6 |
| 20260903010052 | 23 | 248 | 0.0 | 0.0 | 0.00 | 0.03 | 0.03 | 46 | 1015.6 |
| 20260903004552 | 23 | 268 | 0.0 | 4.8 | 0.00 | 0.03 | 0.03 | 46 | 1015.6 |
| 20260903003145 | 23 | 237 | 0.0 | 3.2 | 0.00 | 0.03 | 0.03 | 46 | 1015.5 |
| 20260903001549 | 23 | 262 | 0.0 | 1.6 | 0.00 | 0.03 | 0.03 | 46 | 1015.9 |
| 20260903000040 | 23 | 262 | 0.0 | 6.4 | 0.00 | 0.03 | 0.03 | 47 | 1016.2 |
| 20260902234553 | 23 | 274 | 0.0 | 0.0 | 0.00 | 0.03 | 0.03 | 49 | 1015.7 |
| 20260902233038 | 24 | 249 | 0.0 | 0.0 | 0.00 | 0.03 | 0.03 | 52 | 1015.6 |
| 20260902231542 | 24 | 276 | 0.0 | 0.0 | 0.00 | 0.03 | 0.03 | 54 | 1015.6 |
| 20260902230033 | 24 | 255 | 0.0 | 0.0 | 0.00 | 0.03 | 0.03 | 54 | 1016.1 |
| 20260902224529 | 25 | 269 | 0.0 | 0.0 | 0.00 | 0.03 | 0.03 | 56 | 1016.2 |
| 20260902223028 | 25 | 262 | 0.0 | 0.0 | 0.00 | 0.03 | 0.03 | 56 | 1016.0 |
| 20260902221528 | 26 | 269 | 0.0 | 4.8 | 0.00 | 0.03 | 0.03 | 55 | 1015.7 |